Regional Weather Roundup
Issued by NWS Wilmington, NC

Home | Current Version | Previous Version | Text Only | Print | Product List | Glossary On
Versions: 1 2 3 4 5 6 7 8 9 10 11 12 13 14 15 16 17 18 19 20 21 22 23 24 25 26 27 28 29 30 31 32 33 34 35 36 37 38 39 40 41 42 43 44 45 46 47 48 49 50
000
ASUS42 KILM 261912
RWRILM
RWRILM
REGIONAL HOURLY WEATHER ROUNDUP
NATIONAL WEATHER SERVICE WILMINGTON NC
300 PM EDT THU MAR 26 2015

NOTE: "FAIR" INDICATES FEW OR NO CLOUDS BELOW 12,000 FEET WITH NO
SIGNIFICANT WEATHER AND/OR OBSTRUCTIONS TO VISIBILITY.

...............WFO WILMINGTON COUNTY WARNING AREA...............

......COASTAL NC AND SC COUNTIES......

CITY           SKY/WX    TMP DP  RH WIND       PRES   REMARKS
WILMINGTON     PTSUNNY   75  53  46 SW18G30   29.88F
SOUTHPORT      CLOUDY    67  60  77 S12       29.92S
N MYRTLE BEACH CLOUDY    66  60  81 S16G24    29.90F
MYRTLE BEACH   PTSUNNY   66  57  72 SW14      29.93S

......INLAND NC AND SC COUNTIES.......

CITY           SKY/WX    TMP DP  RH WIND       PRES   REMARKS
LUMBERTON      PTSUNNY   74  59  59 SW10      29.85F
ELIZABETHTOWN  CLOUDY    73  58  57 SW8       29.87F
WHITEVILLE     CLOUDY    74  57  56 W5        29.88S
FLORENCE       PTSUNNY   77  56  48 SW13G21   29.86F
DARLINGTON     PTSUNNY   75  57  53 SW18      29.86F

....................REST OF NORTH CAROLINA......................

.........EASTERN NC.........

CITY           SKY/WX    TMP DP  RH WIND       PRES   REMARKS
CAPE HATTERAS  CLOUDY    69  61  75 S26G41    29.88F
JACKSONVILLE   PTSUNNY   75  55  50 SW10      29.86S
MOREHEAD CITY  SUNNY     68  61  78 S20G28    29.88F
KENANSVILLE    MOSUNNY   74  54  49 SW10G21   29.86S
NEW BERN       PTSUNNY   77  55  46 SW15      29.84F
ELIZABETH CITY CLOUDY    72  63  73 S15G31    29.80F

.........CENTRAL NC.........

CITY           SKY/WX    TMP DP  RH WIND       PRES   REMARKS
RALEIGH DURHAM PTSUNNY   73  58  59 SW17G23   29.80F
ROCKY MOUNT    PTSUNNY   72  62  71 SW13G21   29.81F
ROANOKE RAPIDS NOT AVBL
FAYETTEVILLE   MOSUNNY   75  57  53 SW15G23   29.84F
HOFFMAN        MOSUNNY   74  58  58 SW14      29.85F

.........WESTERN NC.........

CITY           SKY/WX    TMP DP  RH WIND       PRES   REMARKS
CHARLOTTE      CLOUDY    71  55  56 S16       29.85F
GREENSBORO     PTSUNNY   71  56  58 SW14G21   29.80F
HICKORY        NOT AVBL
BOONE          NOT AVBL
ASHEVILLE      NOT AVBL

.....................REST OF SOUTH CAROLINA.....................

.........EASTERN SC.........

CITY           SKY/WX    TMP DP  RH WIND       PRES   REMARKS
CHARLESTON     PTSUNNY   78  58  49 S12G21    29.90F
BEAUFORT MCAS  CLOUDY    73  63  70 SE9       29.91F
HILTON HEAD    CLOUDY    66  63  88 S5        29.95F

.........CENTRAL SC.........

CITY           SKY/WX    TMP DP  RH WIND       PRES   REMARKS
COLUMBIA       CLOUDY    77  56  48 SW10G20   29.85F
ORANGEBURG     PTSUNNY   77  55  46 SW12      29.88F
SUMTER SHAW    PTSUNNY   78  57  48 SW12      29.85F

.........WESTERN SC.........

CITY           SKY/WX    TMP DP  RH WIND       PRES   REMARKS
GREENVILLE     NOT AVBL
ROCK HILL      CLOUDY    71  57  61 W12       29.86F
ANDERSON       CLOUDY    73  56  54 SW14      29.85F
CLEMSON        NOT AVBL
GREENWOOD      CLOUDY    74  54  49 SW10      29.87F


...................COASTAL AND OFFSHORE REPORTS..................

................LOCAL PIERS AND NC RESERVE................


STATION/POSITION TIME  SKY/WX   TEMP    WIND        PRES    VSBY
                                AIR SEA DIR/SP/G
                 (UTC)          (F)     (DEG/KT/KT) (MB)    (MI)
JOHNY MRCER PIER 1800            67 60  190/ 13/ 18 1011.5F
NC RESRV MASNBRO 1745            74     250/  4     1013.0
OCEAN CREST PIER 1902            62 60  160/ 11/ 12 1012.1F
SPRINGMAID  PIER 1800            60 57  170/ 13/ 15 1013.3F


................COASTAL AND OFFSHORE BUOYS................


STATION/POSITION TIME  SKY/WX   TEMP    WIND        PRES    VSBY
                                AIR SEA DIR/SP/G
                 (UTC)          (F)     (DEG/KT/KT) (MB)    (MI)
DIMNDSHOAL 41025 NOT AVBL
CAPE LOOKOUT     1900            65     180/ 16/ 17 1011.5F
ONSLOW BAY 41036 NOT AVBL
5 WRITEBCH 41038 1800            61 56  190/ 14/ 17 1012.3F
MASONBORO  41110 1819               56                N/A
WVE H/P(F/S)=  6/ 8 WND WVE H/P(F/S)=  5/ 8

WILM HARBR 41108 1811               60                N/A
WVE H/P(F/S)=  5/ 8 WND WVE H/P(F/S)=  5/ 8

27WRITEBCH 41037 1800            62 65  230/ 12/ 14 1015.9F
FRYING PAN 41013 1850            69 68  230/ 14/ 17 1014.0F
SUNST NRSH 41024 1800            62     180/ 10/ 12   N/A
CAPRS NRSH 41029 1800            61     220/ 14/ 16   N/A
EDISTO     41004 1850            68 71  250/ 12/ 16 1013.6F
WVE H/P(F/S)=  5/ 8 WND WVE H/P(F/S)=  2/ 6 SWL H/P/D(F/S/D)=  5/ 8



..........OFFSHORE BUOYS BEYOND 100 NM OFFSHORE...........
.....IN A TRIANGLE---HAT TO BERMUDA TO BAHAMAS TO HAT.....


STATION/POSITION TIME  SKY/WX   TEMP    WIND        PRES    VSBY
                                AIR SEA DIR/SP/G
                 (UTC)          (F)     (DEG/KT/KT) (MB)    (MI)
150E HAT   41001 NOT AVBL
W BERMUDA  41048 1850            67 69  140/ 17/ 21 1022.6F
WVE H/P(F/S)=  5/ 5 WND WVE H/P(F/S)=  5/ 5 SWL H/P/D(F/S/D)=  2/ 80/12

ATLANTIC S 41049 1850            70 74   90/ 17/ 21 1023.1F
WVE H/P(F/S)=  6/ 6 WND WVE H/P(F/S)=  5/ 6 SWL H/P/D(F/S/D)=  3/ 80/11

E BAHAMAS  41046 1850            77 79  120/ 12/ 16 1018.7F
WVE H/P(F/S)=  6/ 9 WND WVE H/P(F/S)=  3/ 6 SWL H/P/D(F/S/D)=  5/ 30/ 9

NE BAHAMAS 41047 1850            74 74  120/ 21/ 25 1019.7F
WVE H/P(F/S)=  9/ 8 WND WVE H/P(F/S)= 10/ 8

120E CANVRL41010 1820            77 76  170/ 16/ 17 1015.7F

END


USA.gov is the U.S. government's official web portal to all federal, state and local government web resources and services.